Retour au catalogue

STARLINK-36900

ActifCommunicationsSSO
NORAD 67973·PAYLOAD·🇺🇸 United States

Lancé Feb 25, 2026 depuis Vandenberg Space Force Base

Loading…

Prochains Passages (prochaines 24 heures)

TLE

FraisSource: CelesTrak SupGP

Époque: Sep 15, 2026, 03:00 UTC

1 67973C 26038N   26258.12548611 -.00054679  00000+0 -16976-2 0  2583
2 67973  97.2847 266.5580 0001617  98.1173 159.6690 15.33462284    12

Suivez STARLINK-36900 en temps réel avec AllMySat

Download on the App Store